Weather Roundup
Issued by NWS Chicago, IL

Home | Current Version | Previous Version | Text Only | Print | Product List | Glossary On
Versions: 1 2 3 4 5 6 7 8 9 10 11 12 13 14 15 16 17 18 19 20 21 22 23 24 25 26 27 28 29 30 31 32 33 34 35 36 37 38 39 40 41 42 43 44 45 46 47 48 49 50
000
NZUS59 KLOT 281810
HRRLOT

CHICAGO AREA WEATHER ROUNDUP
NATIONAL WEATHER SERVICE CHICAGO/ROMEOVILLE IL
100 PM CDT MON JUL 28 2014

NOTE: "FAIR" INDICATES FEW OR NO CLOUDS BELOW 12,000 FEET WITH NO
SIGNIFICANT WEATHER AND/OR OBSTRUCTIONS TO VISIBILITY.

* THESE STATIONS ARE NOT UNDER NWS QUALITY CONTROL. THEY ALSO MAY NOT
  REPORT WEATHER SUCH AS PRECIPITATION OR FOG.

ILZ005-006-012>014-019>023-281900-
NORTHEAST ILLINOIS

CITY           SKY/WX    TMP DP  RH WIND       PRES   REMARKS
OHARE          MOSUNNY   69  41  36 N21G26    30.08F
6HR MIN TEMP:  60; 6HR MAX TEMP:  70;

MIDWAY         MOSUNNY   69  43  38 N21G31    30.08S
6HR MIN TEMP:  62; 6HR MAX TEMP:  71;

AURORA         MOSUNNY   70  47  43 N10G21    30.10S
6HR MIN TEMP:  57; 6HR MAX TEMP:  70;

LANSING*       SUNNY     65  48  54 N9G20     30.08S
JOLIET*        SUNNY     69  44  40 N8G18     30.10R
WAUKEGAN       SUNNY     66  47  50 N13G20    30.08F
6HR MIN TEMP:  56; 6HR MAX TEMP:  66;

DUPAGE AIRPORT SUNNY     71  47  42 N9G23     30.09S
6HR MIN TEMP:  59; 6HR MAX TEMP:  71;

WHEELING       SUNNY     71  45  39 N15G24    30.10F
6HR MIN TEMP:  60; 6HR MAX TEMP:  71;

KANKAKEE*      PTSUNNY   69  55  60 N8        30.07S
MORRIS*        SUNNY     70  52  52 N5        30.09S
LEWIS AIRPORT* SUNNY     69  44  40 NE15G21   30.09R
NORTHERLY IS     N/A     62  48  60 N14         N/A
$$

WIZ051-052-058>065-066-070>072-281900-
SOUTHEAST WISCONSIN

CITY           SKY/WX    TMP DP  RH WIND       PRES   REMARKS
MILWAUKEE      PTSUNNY   65  50  58 NE13      30.09F
6HR MIN TEMP:  56; 6HR MAX TEMP:  66;

KENOSHA*       SUNNY     68  50  52 N9G20     30.09F
RACINE*        SUNNY     65  49  56 N14G20    30.10F
BURLINGTON     MOSUNNY   66  46  48 N14       30.10S
WEST BEND      MOSUNNY   66  46  48 N12G17    30.09S
$$

INZ001>003-010>013-019-020-281900-
NORTHWEST INDIANA

CITY           SKY/WX    TMP DP  RH WIND       PRES   REMARKS
GARY*          PTSUNNY   66  50  55 N17G35    30.10R
MICHIGAN CITY* NOT AVBL
RENSSELAER*    NOT AVBL
VALPARAISO     PTSUNNY   62  51  67 N15G22    30.07F
$$

LMZ740>746-281900-
SOUTHERN LAKE MICHIGAN

STATION/POSITION TIME  SKY/WX   TEMP WIND        PRES    VSBY
                                AIR  DIR/SP/G
                 (UTC)          (F)  (DEG/KT/KT) (MB)    (MI)
HARRISON CRIB    1800            59  350/ 21/ 25   N/A
BURNHAM HARBOR   1800            62  350/ 12/ 21   N/A
CALUMET HARBOR   1800            62  330/ 10/ 21 1017.7R
BURNS HARBOR     NOT AVBL
MICHIGAN CITY    1800            59  330/ 20/ 24   N/A
$$

ABBREVIATIONS USED IN REMARKS
   TC - TEMPERATURE IN CELSIUS
  WCI - WIND CHILL INDEX
   HX - HEAT INDEX
  VSB - VISIBILITY
$$


USA.gov is the U.S. government's official web portal to all federal, state and local government web resources and services.